Location: Spruce Knob
(38.6995°N, 79.5330°W)
Time: 21:31:26
(UTC-05:00)

Vanguard 1 Rocket - Visible Passes

Search period start: 22 January 2022 00:00
Search period end: 01 February 2022 00:00
Orbit: 651 x 4224 km, 34.3° (Epoch: 22 January)

Date Brightness Start Highest point End Pass type
(mag) Time Alt. Az. Time Alt. Az. Time Alt. Az.
22 Jan 9.5 18:42:44 10° W 18:52:38 37° SW 18:58:23 10° SSE visible
23 Jan 9.9 20:01:10 10° WSW 20:05:18 14° SW 20:08:34 10° SSW visible
24 Jan 9.8 18:45:23 10° W 18:54:54 30° SW 19:00:39 10° SSE visible
26 Jan 10.0 18:48:13 10° W 18:57:01 24° SW 19:02:40 10° S visible
28 Jan 10.3 18:51:23 10° W 18:58:59 19° SW 19:04:15 10° S visible
30 Jan 12.4 06:33:17 10° SE 06:37:17 11° ESE 06:41:23 10° ESE visible
30 Jan 10.7 18:55:11 10° W 19:00:49 14° SW 19:05:08 10° SSW visible
